FW4235 Weather Reports


time (UTC)temp
F
wind
direction
speed
knots
gust
knots
rain 1hr
in
rain 24hr
in
rain mn
in
humidity
%
barometer
mb
20260502210007 49 294 0.0 0.0 0.00 0.00 0.00 60 1015.8
20260502205506 49 319 0.0 0.0 0.00 0.00 0.00 59 1015.8
20260502205006 49 321 0.0 0.0 0.00 0.00 0.00 59 1015.9
20260502204506 49 321 0.0 0.0 0.00 0.00 0.00 58 1015.9
20260502204006 50 328 0.0 0.0 0.00 0.00 0.00 58 1015.9
20260502203506 50 330 0.0 0.0 0.00 0.00 0.00 58 1015.9
20260502203007 50 343 0.0 0.0 0.00 0.00 0.00 58 1016.0
20260502202506 49 338 0.0 0.0 0.00 0.00 0.00 58 1016.0
20260502202006 49 323 0.0 0.0 0.00 0.00 0.00 57 1016.0
20260502201507 49 325 0.0 0.0 0.00 0.00 0.00 57 1016.0
20260502201006 49 328 0.0 0.0 0.00 0.00 0.00 57 1016.0
20260502200007 49 324 0.0 0.0 0.00 0.00 0.00 55 1016.1
20260502195006 50 324 0.0 0.0 0.00 0.00 0.00 53 1016.2
20260502194507 50 326 0.0 0.0 0.00 0.00 0.00 52 1016.2
20260502194007 50 333 0.0 0.0 0.00 0.00 0.00 52 1016.1
20260502193507 51 320 0.0 0.0 0.00 0.00 0.00 52 1016.1
20260502193007 51 357 0.0 0.0 0.00 0.00 0.00 52 1016.0
20260502192506 51 304 0.0 0.0 0.00 0.00 0.00 51 1016.0
20260502192007 51 348 0.0 0.0 0.00 0.00 0.00 51 1016.0
20260502191506 51 4 0.0 0.0 0.00 0.00 0.00 51 1016.0
20260502191006 51 7 0.0 0.0 0.00 0.00 0.00 50 1016.0
20260502190507 51 21 0.0 0.0 0.00 0.00 0.00 50 1016.0
20260502190006 51 344 0.0 0.0 0.00 0.00 0.00 50 1016.0
20260502185507 51 358 0.0 0.0 0.00 0.00 0.00 50 1015.9
20260502185007 51 8 0.0 0.0 0.00 0.00 0.00 50 1015.9
20260502184007 51 4 0.0 0.0 0.00 0.00 0.00 50 1015.9
20260502183507 51 10 0.0 0.0 0.00 0.00 0.00 50 1015.8
20260502183006 51 1 0.0 0.0 0.00 0.00 0.00 50 1015.8
20260502182506 51 15 0.0 0.0 0.00 0.00 0.00 50 1015.7
20260502182007 51 5 0.0 0.0 0.00 0.00 0.00 49 1015.6
20260502181506 51 355 0.0 0.0 0.00 0.00 0.00 49 1015.6
20260502181006 51 341 0.0 0.0 0.00 0.00 0.00 49 1015.7
20260502170507 52 59 0.0 0.0 0.00 0.00 0.00 46 1015.6
20260502164007 52 82 0.0 0.0 0.00 0.00 0.00 46 1015.4
20260502163507 52 63 0.0 0.0 0.00 0.00 0.00 46 1015.4
20260502162506 52 54 0.0 0.0 0.00 0.00 0.00 46 1015.5
20260502161506 53 62 0.0 0.0 0.00 0.00 0.00 45 1015.5
20260502161006 53 11 0.0 0.0 0.00 0.00 0.00 45 1015.5
20260502160507 53 359 0.0 0.0 0.00 0.00 0.00 45 1015.6
20260502151007 53 58 0.0 0.0 0.00 0.00 0.00 47 1015.8
20260502150506 53 70 0.0 0.0 0.00 0.00 0.00 46 1015.8
20260502130506 54 18 0.0 0.0 0.00 0.00 0.00 44 1016.2
20260502123506 54 59 0.0 0.0 0.00 0.00 0.00 49 1016.2
20260502123006 53 37 0.0 0.0 0.00 0.00 0.00 49 1016.2
20260502122506 53 13 0.0 0.0 0.00 0.00 0.00 49 1016.3
20260502122006 54 14 0.0 0.0 0.00 0.00 0.00 49 1016.4
20260502121506 54 22 0.0 0.0 0.00 0.00 0.00 48 1016.2
20260502121006 54 359 0.0 0.0 0.00 0.00 0.00 46 1016.2
20260502115506 55 56 0.0 0.0 0.00 0.00 0.00 46 1016.2
20260502115007 55 35 0.0 0.0 0.00 0.00 0.00 47 1016.2
20260502114006 54 49 0.0 0.0 0.00 0.00 0.00 48 1016.4
20260502113506 54 26 0.0 0.0 0.00 0.00 0.00 49 1016.3
20260502113007 54 47 0.0 0.0 0.00 0.00 0.00 49 1016.3
20260502112506 55 13 0.0 0.0 0.00 0.00 0.00 49 1016.3
20260502111507 55 82 0.0 0.0 0.00 0.00 0.00 52 1016.2
20260502111008 54 21 0.0 0.0 0.00 0.00 0.00 51 1016.2
20260502110007 54 68 0.0 0.0 0.00 0.00 0.00 54 1016.3
20260502105007 54 10 0.0 0.0 0.00 0.00 0.00 55 1016.4
20260502104507 53 29 0.0 0.0 0.00 0.00 0.00 57 1016.5
20260502104008 53 28 0.0 0.0 0.00 0.00 0.00 56 1016.6
20260502103508 54 29 0.0 0.0 0.00 0.00 0.00 53 1016.8
20260502103008 55 27 0.0 0.0 0.00 0.00 0.00 51 1016.6
20260502102508 56 53 0.0 0.0 0.00 0.00 0.00 52 1016.7
20260502102008 55 55 0.0 0.0 0.00 0.00 0.00 53 1016.7
20260502101507 55 21 0.0 0.0 0.00 0.00 0.00 54 1016.8
20260502101007 55 76 0.0 0.0 0.00 0.00 0.00 54 1016.8
20260502091508 53 15 0.0 0.0 0.00 0.00 0.00 60 1016.7
20260502091008 53 65 0.0 0.0 0.00 0.00 0.00 58 1016.8
20260502090507 53 41 0.0 0.0 0.00 0.00 0.00 59 1016.9
20260502071508 52 50 0.0 0.0 0.00 0.00 0.00 59 1016.6
20260502071007 52 77 0.0 0.0 0.00 0.00 0.00 58 1016.6
20260502070507 53 70 0.0 0.0 0.00 0.00 0.00 59 1016.6
20260502070007 52 75 0.0 0.0 0.00 0.00 0.00 59 1016.6
20260502065507 52 62 0.0 0.0 0.00 0.00 0.00 59 1016.5
20260502065007 52 72 0.0 0.0 0.00 0.00 0.00 58 1016.5
20260502064008 52 57 0.0 0.0 0.00 0.00 0.00 56 1016.4
20260502063507 52 69 0.0 0.0 0.00 0.00 0.00 56 1016.4
20260502062507 53 69 0.0 0.0 0.00 0.00 0.00 56 1016.3
20260502061507 53 59 0.0 0.0 0.00 0.00 0.00 56 1016.3
20260502061008 53 51 0.0 0.0 0.00 0.00 0.00 58 1016.3
20260502060507 52 79 0.0 0.0 0.00 0.00 0.00 57 1016.3
20260502055507 52 70 0.0 0.0 0.00 0.00 0.00 60 1016.3
20260502055007 52 67 0.0 0.0 0.00 0.00 0.00 60 1016.4
20260502054507 52 70 0.0 0.0 0.00 0.00 0.00 61 1016.4
20260502054007 51 66 0.0 0.0 0.00 0.00 0.00 62 1016.4
20260502053008 51 49 0.0 0.0 0.00 0.00 0.00 64 1016.5
20260502052507 51 69 0.0 0.0 0.00 0.00 0.00 62 1016.5
20260502052008 51 69 0.0 0.0 0.00 0.00 0.00 62 1016.7
20260502051507 51 66 0.0 0.0 0.00 0.00 0.00 62 1016.6
20260502051014 51 66 0.0 0.0 0.00 0.00 0.00 62 1016.5
20260502050507 51 65 0.0 0.0 0.00 0.00 0.00 62 1016.5
20260502050007 51 57 0.0 0.0 0.00 0.00 0.00 62 1016.5
20260502045507 51 57 0.0 0.0 0.00 0.00 0.00 63 1016.5
20260502045007 51 74 0.0 0.0 0.00 0.00 0.00 63 1016.6
20260502044507 51 43 0.0 0.0 0.00 0.00 0.00 63 1016.6
20260502044008 51 48 0.0 0.0 0.00 0.00 0.00 64 1016.6
20260502043507 51 46 0.0 0.0 0.00 0.00 0.00 64 1016.5
20260502043007 51 53 0.0 0.0 0.00 0.00 0.00 64 1016.5
20260502042507 51 50 0.0 0.0 0.00 0.00 0.00 65 1016.4
20260502042008 51 70 0.0 0.0 0.00 0.00 0.00 65 1016.4
20260502041507 51 75 0.0 0.0 0.00 0.00 0.00 64 1016.4
20260502040507 51 46 0.0 0.0 0.00 0.00 0.00 64 1016.4
20260502040007 51 63 0.0 0.0 0.00 0.00 0.00 63 1016.4
20260502035507 51 57 0.0 0.0 0.00 0.00 0.00 62 1016.5
20260502035008 51 46 0.0 0.0 0.00 0.00 0.00 62 1016.4
20260502034007 51 50 0.0 0.0 0.00 0.00 0.00 63 1016.4
20260502033508 51 51 0.0 0.0 0.00 0.00 0.00 63 1016.3
20260502033008 51 42 0.0 0.0 0.00 0.00 0.00 62 1016.1
20260502032507 51 66 0.0 0.0 0.00 0.00 0.00 62 1016.2
20260502031507 51 51 0.0 0.0 0.00 0.00 0.00 62 1015.9
20260502031007 51 58 0.0 0.0 0.00 0.00 0.00 62 1015.9
20260502030507 51 67 0.0 0.0 0.00 0.00 0.00 62 1015.9
20260502030007 51 64 0.0 0.0 0.00 0.00 0.00 62 1016.1
20260502025507 51 60 0.0 0.0 0.00 0.00 0.00 62 1016.1
20260502025008 51 48 0.0 0.0 0.00 0.00 0.00 63 1016.2
20260502024507 51 45 0.0 0.0 0.00 0.00 0.00 64 1016.1
20260502024008 51 55 0.0 0.0 0.00 0.00 0.00 65 1016.2
20260502023507 51 60 0.0 0.0 0.00 0.00 0.00 65 1016.1
20260502022508 51 68 0.0 0.0 0.00 0.00 0.00 65 1016.1
20260502022008 51 49 0.0 0.0 0.00 0.00 0.00 65 1016.2
20260502021507 51 65 0.0 0.0 0.00 0.00 0.00 65 1016.2
20260502021007 51 60 0.0 0.0 0.00 0.00 0.00 65 1016.2
20260502020508 51 64 0.0 0.0 0.00 0.00 0.00 66 1016.2
20260502015508 51 40 0.0 0.0 0.00 0.00 0.00 68 1016.3
20260502015008 51 74 0.0 0.0 0.00 0.00 0.00 68 1016.3
20260502014507 51 66 0.0 0.0 0.00 0.00 0.00 68 1016.3
20260502013507 51 83 0.0 0.0 0.00 0.00 0.00 68 1016.4
20260502012507 51 59 0.0 0.0 0.00 0.00 0.00 67 1016.4
20260502011507 51 72 0.0 0.0 0.00 0.00 0.00 66 1016.4
20260502011007 51 67 0.0 0.0 0.00 0.00 0.00 67 1016.4
20260502010007 51 76 0.0 0.0 0.00 0.00 0.00 68 1016.4
20260502005507 51 70 0.0 0.0 0.00 0.00 0.00 68 1016.3
20260502005007 51 67 0.0 0.0 0.00 0.00 0.00 67 1016.3
20260502004508 51 63 0.0 0.0 0.00 0.00 0.00 66 1016.3
20260502004008 51 51 0.0 0.0 0.00 0.00 0.00 66 1016.2
20260502003507 51 56 0.0 0.0 0.00 0.00 0.00 65 1016.4
20260502002507 51 59 0.0 0.0 0.00 0.00 0.00 66 1016.4
20260502001507 51 63 0.0 0.0 0.00 0.00 0.00 67 1016.6
20260502001007 52 68 0.0 0.0 0.00 0.00 0.00 66 1016.7
20260502000507 52 74 0.0 0.0 0.00 0.00 0.00 66 1016.7
20260501235507 52 72 0.0 0.0 0.00 0.00 0.00 64 1016.7
20260501235007 52 65 0.0 0.0 0.00 0.00 0.00 63 1016.8
20260501234507 52 69 0.0 0.0 0.00 0.00 0.00 64 1016.7
20260501234008 52 60 0.0 0.0 0.00 0.00 0.00 65 1016.8
20260501233507 52 69 0.0 0.0 0.00 0.00 0.00 66 1016.8
20260501232507 52 72 0.0 0.0 0.00 0.00 0.00 67 1016.8
20260501232007 52 63 0.0 0.0 0.00 0.00 0.00 67 1016.9
20260501231508 52 61 0.0 0.0 0.00 0.00 0.00 66 1016.9
20260501231007 52 57 0.0 0.0 0.00 0.00 0.00 66 1016.9
20260501230507 52 60 0.0 0.0 0.00 0.00 0.00 66 1016.9
20260501230007 52 55 0.0 0.0 0.00 0.00 0.00 65 1017.0
20260501225507 52 71 0.0 0.0 0.00 0.00 0.00 65 1017.0
20260501224507 52 68 0.0 0.0 0.00 0.00 0.00 65 1017.1
20260501224007 52 72 0.0 0.0 0.00 0.00 0.00 65 1017.3
20260501223508 52 84 0.0 0.0 0.00 0.00 0.00 64 1017.3
20260501223007 52 64 0.0 0.0 0.00 0.00 0.00 64 1017.4
20260501222507 52 61 0.0 0.0 0.00 0.00 0.00 63 1017.4
20260501222007 52 59 0.0 0.0 0.00 0.00 0.00 63 1017.4
20260501221507 52 61 0.0 0.0 0.00 0.00 0.00 63 1017.5
20260501221007 52 55 0.0 0.0 0.00 0.00 0.00 63 1017.6
20260501220508 53 71 0.0 0.0 0.00 0.00 0.00 63 1017.6
20260501220007 53 55 0.0 0.0 0.00 0.00 0.00 63 1017.6
20260501215510 53 69 0.0 0.0 0.00 0.00 0.00 63 1017.6
20260501215008 53 53 0.0 0.0 0.00 0.00 0.00 63 1017.6
20260501214507 53 62 0.0 0.0 0.00 0.00 0.00 63 1017.6
20260501214008 53 51 0.0 0.0 0.00 0.00 0.00 64 1017.7
20260501213507 53 57 0.0 0.0 0.00 0.00 0.00 64 1017.7
20260501213007 53 68 0.0 0.0 0.00 0.00 0.00 64 1017.9
20260501212507 53 60 0.0 0.0 0.00 0.00 0.00 64 1017.8
20260501212008 53 57 0.0 0.0 0.00 0.00 0.00 64 1017.7
20260501211008 53 62 0.0 0.0 0.00 0.00 0.00 64 1017.6